Weather History for Asheville, NC

Change the Weather History Date:

Thursday, August 29, 2013

  Actual Average Record
Temperature  
Mean Temperature 79 °F 71 °F  
Max Temperature 86 °F 82 °F 98 °F (1948)
Min Temperature 71 °F 61 °F 42 °F (1986)
Degree Days  
Heating Degree Days 0 0  
Month to date heating degree days 5 0  
Since 1 June heating degree days 5 14  
Since 1 July heating degree days 5 0  
Cooling Degree Days 14 7  
Month to date cooling degree days 193 236  
Year to date cooling degree days 716 746  
Since 1 June cooling degree days 665 688  
Growing Degree Days 28 (Base 50)    
Moisture  
Dew Point 68 °F    
Average Humidity 71    
Maximum Humidity 90    
Minimum Humidity 51    
Precipitation  
Precipitation T in 0.14 in 4.70 in (1940)
Month to date precipitation 6.90 4.12  
Year to date precipitation 58.68 31.33  
Snow  
Snow 0.00 in 0.00 in 0.00 in ()
Month to date snowfall 0.0 0.0  
Since 1 June snowfall 0.0 0.0  
Since 1 July snowfall 0.0 0.0  
Snow Depth 0.00 in    
Sea Level Pressure  
Sea Level Pressure 29.98 in    
Wind  
Wind Speed 8 mph (NNW)    
Max Wind Speed 17 mph    
Max Gust Speed 22 mph    
Visibility 10 miles    
Events      
T = Trace of Precipitation, MM = Missing Value Source: NWS Daily Summary

Daily Weather History Graph

Daily Weather History Graph

Search for Another Location

Airport:

Trip Planner

Search our weather history database for the weather conditions in past years. The results will help you decide how hot, cold, wet, or windy it might be!

Date:

Astronomy

Aug. 29, 2013 Rise Set
Actual Time 7:00 AM EDT 8:00 PM EDT
Civil Twilight 6:34 AM EDT 8:27 PM EDT
Nautical Twilight 6:03 AM EDT 8:57 PM EDT
Astronomical Twilight 5:31 AM EDT 9:29 PM EDT
Moon 12:57 AM EDT (8/29) 3:22 PM EDT (8/29)
Length of Visible Light 13h 52m
Length of Day
13h 00m
Last Quarter, 38% of the Moon is Illuminated
Aug 29
Last Quarter
Sep 5
New
Sep 12
First Quarter
Sep 19
Full
Sep 26
Last Quarter

Hourly Weather History & Observations

Time (EDT) Temp. Heat Index Dew Point Humidity Pressure Visibility Wind Dir Wind Speed Gust Speed Precip Events Conditions
12:54 AM 71.1 °F - 66.0 °F 84% 29.96 in 10.0 mi NW 4.6 mph - N/A   Clear
1:54 AM 71.1 °F - 66.9 °F 87% 29.97 in 10.0 mi North 8.1 mph - N/A   Clear
2:54 AM 71.1 °F - 66.9 °F 87% 29.96 in 10.0 mi NNW 5.8 mph - N/A   Clear
3:54 AM 71.1 °F - 66.0 °F 84% 29.96 in 10.0 mi NNW 5.8 mph - N/A   Partly Cloudy
4:54 AM 73.0 °F - 66.9 °F 81% 29.95 in 10.0 mi North 8.1 mph - N/A   Overcast
5:54 AM 73.0 °F - 66.9 °F 81% 29.95 in 10.0 mi North 6.9 mph - N/A   Overcast
6:54 AM 73.0 °F - 66.9 °F 81% 29.96 in 10.0 mi Calm Calm - N/A   Overcast
7:54 AM 73.9 °F - 66.9 °F 79% 29.97 in 10.0 mi North 9.2 mph - N/A   Overcast
8:26 AM 73.4 °F - 68.0 °F 83% 30.07 in 10.0 mi Variable 5.8 mph - N/A   Overcast
8:54 AM 73.9 °F - 68.0 °F 82% 29.99 in 10.0 mi Variable 4.6 mph - N/A   Mostly Cloudy
9:35 AM 75.2 °F - 68.0 °F 78% 30.08 in 10.0 mi North 8.1 mph - N/A   Overcast
9:54 AM 75.9 °F - 68.0 °F 76% 30.00 in 10.0 mi North 8.1 mph - N/A   Overcast
10:11 AM 77.0 °F - 69.8 °F 78% 30.09 in 10.0 mi NNW 6.9 mph - N/A   Overcast
10:54 AM 78.1 °F - 68.0 °F 71% 30.01 in 10.0 mi North 8.1 mph - N/A   Mostly Cloudy
11:54 AM 80.1 °F 82.9 °F 69.1 °F 69% 30.00 in 10.0 mi NNW 11.5 mph - N/A   Mostly Cloudy
12:54 PM 82.0 °F 85.5 °F 69.1 °F 65% 29.99 in 10.0 mi North 11.5 mph - N/A   Partly Cloudy
1:54 PM 84.0 °F 87.8 °F 69.1 °F 61% 29.98 in 10.0 mi North 13.8 mph - N/A   Partly Cloudy
2:54 PM 84.9 °F 87.6 °F 66.9 °F 55% 29.96 in 10.0 mi North 11.5 mph 20.7 mph N/A   Partly Cloudy
3:54 PM 86.0 °F 88.8 °F 66.9 °F 53% 29.94 in 10.0 mi North 11.5 mph 21.9 mph N/A   Clear
4:54 PM 86.0 °F 88.2 °F 66.0 °F 51% 29.93 in 10.0 mi North 12.7 mph 19.6 mph N/A   Clear
5:54 PM 84.9 °F 87.1 °F 66.0 °F 53% 29.94 in 10.0 mi North 10.4 mph - N/A   Clear
6:54 PM 82.0 °F 84.5 °F 66.9 °F 60% 29.93 in 10.0 mi NNW 9.2 mph - N/A   Clear
7:54 PM 78.1 °F - 68.0 °F 71% 29.95 in 10.0 mi NNW 5.8 mph - N/A   Clear
8:54 PM 77.0 °F - 69.1 °F 76% 29.98 in 10.0 mi North 5.8 mph - N/A   Mostly Cloudy
9:54 PM 75.0 °F - 69.1 °F 82% 29.99 in 10.0 mi NW 6.9 mph - N/A   Overcast
10:54 PM 75.0 °F - 66.9 °F 76% 30.00 in 10.0 mi North 4.6 mph - N/A   Overcast
11:54 PM 72.0 °F - 68.0 °F 87% 30.00 in 10.0 mi Variable 3.5 mph - 0.00 in   Clear